Location: Bishopstone
(51.0167°N, 1.9000°W)
Time: 17:03:22
(UTC+00:00)

USA 186 - Pass Details

Date: 16 September 2019
Orbit: 261 x 450 km, 96.9° (Epoch: 07 October)

Event Time Altitude Azimuth Distance (km) Brightness Sun altitude
Exits shadow 19:51:39 - 180° (S) 1,921 4.9 -14.7°
Reaches altitude 10° 19:52:31 10° 183° (S) 1,557 4.4 -14.8°
Maximum altitude 19:55:49 51° 261° (W) 575 2.7 -15.3°
Drops below altitude 10° 19:59:12 10° 338° (NNW) 1,603 5.4 -15.8°
Sets 20:01:18 0° 344° (NNW) 2,481 6.3 -16.1°
